Bookmark and Share
Track history (hours):
 

Luz De Mar

Last reported at 2014-Apr-20 20:21 UTC. Time now 2014-Apr-20 21:11 UTC.
Position N 36°08' W 005°26'.

Length 56 m; draft 6.2 m.

Type: SAR. MMSI: 224311000.

NotesDate/timePositionNaut miles runAvg speedWind from/ knotsBaromVisibWave heightAir tempDewpointWater temp
2014-Apr-20 20:21N 36°08' W 005°26'0 0.0
2014-Apr-20 19:27N 36°08' W 005°26'0 0.0
2014-Apr-20 18:32N 36°08' W 005°26'0 0.0
2014-Apr-20 17:11N 36°08' W 005°26'0 0.0
2014-Apr-20 16:16N 36°08' W 005°26'1 1.2
2014-Apr-20 15:34N 36°08' W 005°25'2 2.1
2014-Apr-20 14:33N 36°06' W 005°25'4 3.7
2014-Apr-20 13:28N 36°10' W 005°25'2 2.1
2014-Apr-20 12:34N 36°09' W 005°23'3 2.7
2014-Apr-20 11:32N 36°08' W 005°26'0 0.0
2014-Apr-20 10:25N 36°08' W 005°26'0 0.0
2014-Apr-20 09:28N 36°08' W 005°26'0 0.0
2014-Apr-20 08:31N 36°08' W 005°26'0 0.0
2014-Apr-20 07:18N 36°08' W 005°26'0 0.0
2014-Apr-20 06:21N 36°08' W 005°26'0 0.0
2014-Apr-20 05:29N 36°08' W 005°26'0 0.0
2014-Apr-20 04:05N 36°08' W 005°26'0 0.0
2014-Apr-20 03:28N 36°08' W 005°26'0 0.0
2014-Apr-20 02:28N 36°08' W 005°26'0 0.0
2014-Apr-20 01:31N 36°08' W 005°26'0 0.0
2014-Apr-20 00:33N 36°08' W 005°26'0 0.0
2014-Apr-19 23:27N 36°08' W 005°26'0 0.0
2014-Apr-19 22:20N 36°08' W 005°26'0 0.0
2014-Apr-19 21:26N 36°08' W 005°26'0 0.0
2014-Apr-19 20:28N 36°08' W 005°26'0 0.0
2014-Apr-19 19:31N 36°08' W 005°26'0 0.0
2014-Apr-19 18:28N 36°08' W 005°26'0 0.0
2014-Apr-19 17:27N 36°08' W 005°26'0 0.0
2014-Apr-19 16:24N 36°08' W 005°26'0 0.0
2014-Apr-19 15:32N 36°08' W 005°26'0 0.0
2014-Apr-19 14:29N 36°08' W 005°26'0 0.0
2014-Apr-19 13:23N 36°08' W 005°26'0 0.0
2014-Apr-19 12:22N 36°08' W 005°26'0 0.0
2014-Apr-19 11:31N 36°08' W 005°26'0 0.0
2014-Apr-19 10:30N 36°08' W 005°26'0 0.0
2014-Apr-19 09:27N 36°08' W 005°26'0 0.0
2014-Apr-19 08:32N 36°08' W 005°26'0 0.0
2014-Apr-19 07:26N 36°08' W 005°26'0 0.0
2014-Apr-19 06:13N 36°08' W 005°26'0 0.0
2014-Apr-19 05:04N 36°08' W 005°26'0 0.0
2014-Apr-19 04:31N 36°08' W 005°26'0 0.0
2014-Apr-19 03:33N 36°08' W 005°26'0 0.0
2014-Apr-19 02:33N 36°08' W 005°26'0 0.0
2014-Apr-19 01:32N 36°08' W 005°26'0 0.0
2014-Apr-19 00:29N 36°08' W 005°26'0 0.0
2014-Apr-18 23:19N 36°08' W 005°26'0 0.0
2014-Apr-18 22:28N 36°08' W 005°26'0 0.0
2014-Apr-18 21:31N 36°08' W 005°26'0 0.0
2014-Apr-18 20:33N 36°08' W 005°26'0 0.0
2014-Apr-18 19:33N 36°08' W 005°26'0 0.0
2014-Apr-18 18:32N 36°08' W 005°26'0 0.0
2014-Apr-18 17:29N 36°08' W 005°26'0 0.0
2014-Apr-18 16:32N 36°08' W 005°26'2 2.4
2014-Apr-18 15:33N 36°09' W 005°24'1 1.3
2014-Apr-18 14:33N 36°09' W 005°25'6 5.7
2014-Apr-18 13:33N 36°04' W 005°24'6 6.5
2014-Apr-18 12:33N 35°58' W 005°21'4 4.3
2014-Apr-18 11:33N 35°54' W 005°19'0 0.0
2014-Apr-18 10:33N 35°54' W 005°19'0 0.0
2014-Apr-18 09:32N 35°54' W 005°19'0 0.0
2014-Apr-18 08:32N 35°54' W 005°19'0 0.0
2014-Apr-18 07:31N 35°54' W 005°19'0 0.0
2014-Apr-18 06:31N 35°54' W 005°19'0 0.0
2014-Apr-18 05:31N 35°54' W 005°19'0 0.0
2014-Apr-18 04:33N 35°54' W 005°19'0 0.0
2014-Apr-18 03:33N 35°54' W 005°19'0 0.0
2014-Apr-18 02:32N 35°54' W 005°19'0 0.0
2014-Apr-18 01:32N 35°54' W 005°19'0 0.0
2014-Apr-18 00:31N 35°54' W 005°19'0 0.0
2014-Apr-17 23:31N 35°54' W 005°19'0 0.0
2014-Apr-17 22:30N 35°54' W 005°19'0 0.0
2014-Apr-17 21:33N 35°54' W 005°19'0 0.0
2014-Apr-17 20:33N 35°54' W 005°19'0 0.0
2014-Apr-17 19:32N 35°54' W 005°19'0 0.0
2014-Apr-17 18:31N 35°54' W 005°19'0 0.0
2014-Apr-17 17:31N 35°54' W 005°19'0 0.0
2014-Apr-17 16:33N 35°54' W 005°19'0 0.0
2014-Apr-17 15:33N 35°54' W 005°19'0 0.0
2014-Apr-17 14:29N 35°54' W 005°19'0 0.0
2014-Apr-17 13:32N 35°54' W 005°19'0 0.0
2014-Apr-17 12:31N 35°54' W 005°19'0 0.0
2014-Apr-17 11:31N 35°54' W 005°19'0 0.0
2014-Apr-17 10:31N 35°54' W 005°19'0 0.0
2014-Apr-17 09:33N 35°54' W 005°19'0 0.0
2014-Apr-17 08:33N 35°54' W 005°19'0 0.0
2014-Apr-17 07:32N 35°54' W 005°19'0 0.0
2014-Apr-17 06:32N 35°54' W 005°19'0 0.0
2014-Apr-17 05:28N 35°54' W 005°19'0 0.0
2014-Apr-17 04:31N 35°54' W 005°19'0 0.0
2014-Apr-17 03:31N 35°54' W 005°19'0 0.0
2014-Apr-17 02:33N 35°54' W 005°19'0 0.0
2014-Apr-17 01:33N 35°54' W 005°19'0 0.0
2014-Apr-17 00:32N 35°54' W 005°19'0 0.0
2014-Apr-16 23:32N 35°54' W 005°19'0 0.0
2014-Apr-16 22:31N 35°54' W 005°19'0 0.0
2014-Apr-16 21:31N 35°54' W 005°19'0 0.0
2014-Apr-16 20:31N 35°54' W 005°19'0 0.0
2014-Apr-16 19:33N 35°54' W 005°19'0 0.0
2014-Apr-16 18:33N 35°54' W 005°19'0 0.0
2014-Apr-16 17:32N 35°54' W 005°19'0 0.0
2014-Apr-16 16:32N 35°54' W 005°19'0 0.0
2014-Apr-16 15:31N 35°54' W 005°19'0 0.0
2014-Apr-16 14:31N 35°54' W 005°19'0 0.0
2014-Apr-16 13:28N 35°54' W 005°19'0 0.0
2014-Apr-16 12:33N 35°54' W 005°19'0 0.0
2014-Apr-16 11:33N 35°54' W 005°19'0 0.0
2014-Apr-16 10:32N 35°54' W 005°19'0 0.0
2014-Apr-16 09:32N 35°54' W 005°19'0 0.0
2014-Apr-16 08:31N 35°54' W 005°19'0 0.0
2014-Apr-16 07:31N 35°54' W 005°19'0 0.0
2014-Apr-16 06:34N 35°54' W 005°19'0 0.0
2014-Apr-16 05:33N 35°54' W 005°19'0 0.0
2014-Apr-16 04:33N 35°54' W 005°19'0 0.0
2014-Apr-16 03:32N 35°54' W 005°19'0 0.0
2014-Apr-16 02:32N 35°54' W 005°19'0 0.0
2014-Apr-16 01:28N 35°54' W 005°19'0 0.0
2014-Apr-16 00:31N 35°54' W 005°19'0 0.0
2014-Apr-15 23:33N 35°54' W 005°19'0 0.0
2014-Apr-15 22:33N 35°54' W 005°19'0 0.0
2014-Apr-15 21:33N 35°54' W 005°19'0 0.0
2014-Apr-15 20:32N 35°54' W 005°19'0 0.0
2014-Apr-15 19:32N 35°54' W 005°19'0 0.0
2014-Apr-15 18:33N 35°54' W 005°19'0 0.0
2014-Apr-15 17:33N 35°54' W 005°19'0 0.0
2014-Apr-15 16:33N 35°54' W 005°19'0 0.0
2014-Apr-15 15:33N 35°54' W 005°19'0 0.0
2014-Apr-15 14:32N 35°54' W 005°19'0 0.0
2014-Apr-15 12:32N 35°54' W 005°19'0 0.0
2014-Apr-15 11:32N 35°54' W 005°19'0 0.0
2014-Apr-15 10:31N 35°54' W 005°19'15 4.9
2014-Apr-15 07:34N 36°07' W 005°25'3 3.0
2014-Apr-15 06:33N 36°10' W 005°25'3 0.3
2014-Apr-14 22:30N 36°08' W 005°26'0 0.0
2014-Apr-14 21:33N 36°08' W 005°26'0 0.0
2014-Apr-14 19:32N 36°08' W 005°26'0 0.0
2014-Apr-14 18:33N 36°08' W 005°26'0 0.0
2014-Apr-14 16:33N 36°08' W 005°26'0 0.0
2014-Apr-14 15:33N 36°08' W 005°26'0 0.0
2014-Apr-14 14:32N 36°08' W 005°26'0 0.0
2014-Apr-14 13:32N 36°08' W 005°26'0 0.0
2014-Apr-14 07:29N 36°08' W 005°26'0 0.0
2014-Apr-14 06:32N 36°08' W 005°26'0 0.0
2014-Apr-13 22:28N 36°08' W 005°26'0 0.0
2014-Apr-13 21:31N 36°08' W 005°26'0 0.0
2014-Apr-13 20:33N 36°08' W 005°26'6 5.6
2014-Apr-13 19:34N 36°02' W 005°26'3 3.4
2014-Apr-13 18:33N 36°06' W 005°25'2 2.2
2014-Apr-13 17:28N 36°08' W 005°26'2 1.0
2014-Apr-13 15:34N 36°09' W 005°24'1 1.0
2014-Apr-13 14:34N 36°09' W 005°25'3 3.1
2014-Apr-13 13:34N 36°06' W 005°24'2 1.5
2014-Apr-13 12:26N 36°08' W 005°25'1 0.2
2014-Apr-13 09:17N 36°08' W 005°26'0 0.0
2014-Apr-13 08:32N 36°08' W 005°26'0 0.0
2014-Apr-13 07:29N 36°08' W 005°26'0 0.0
2014-Apr-13 06:31N 36°08' W 005°26'0 0.0
2014-Apr-13 05:16N 36°08' W 005°26'0 0.0
2014-Apr-13 04:27N 36°08' W 005°26'0 0.0
2014-Apr-13 03:15N 36°08' W 005°26'0 0.0
2014-Apr-13 02:32N 36°08' W 005°26'0 0.0
2014-Apr-13 01:32N 36°08' W 005°26'0 0.0
2014-Apr-13 00:16N 36°08' W 005°26'0 0.0
2014-Apr-12 23:31N 36°08' W 005°26'0 0.0
2014-Apr-12 22:31N 36°08' W 005°26'0 0.0
2014-Apr-12 21:15N 36°08' W 005°26'0 0.0
2014-Apr-12 20:33N 36°08' W 005°26'0 0.0
2014-Apr-12 19:23N 36°08' W 005°26'0 0.0
2014-Apr-12 18:29N 36°08' W 005°26'0 0.0
2014-Apr-12 17:32N 36°08' W 005°26'0 0.0
2014-Apr-12 16:31N 36°08' W 005°26'0 0.0
2014-Apr-12 15:25N 36°08' W 005°26'0 0.0
2014-Apr-12 14:30N 36°08' W 005°26'0 0.0
2014-Apr-12 13:33N 36°08' W 005°26'0 0.0
2014-Apr-12 12:32N 36°08' W 005°26'0 0.0
2014-Apr-12 11:20N 36°08' W 005°26'0 0.0
2014-Apr-12 10:28N 36°08' W 005°26'0 0.0
2014-Apr-12 09:07N 36°08' W 005°26'0 0.0
2014-Apr-12 07:24N 36°08' W 005°26'0 0.0
2014-Apr-12 06:27N 36°08' W 005°26'0 0.0
2014-Apr-12 05:32N 36°08' W 005°26'0 0.0
2014-Apr-12 04:32N 36°08' W 005°26'0 0.0
2014-Apr-12 03:10N 36°08' W 005°26'0 0.0
2014-Apr-12 02:31N 36°08' W 005°26'0 0.0
2014-Apr-12 01:25N 36°08' W 005°26'0 0.0
2014-Apr-12 00:33N 36°08' W 005°26'0 0.0
2014-Apr-11 23:21N 36°08' W 005°26'0 0.0
2014-Apr-11 22:17N 36°08' W 005°26'0 0.0
2014-Apr-11 21:29N 36°08' W 005°26'0 0.0
2014-Apr-11 20:22N 36°08' W 005°26'0 0.0
2014-Apr-11 19:31N 36°08' W 005°26'0 0.0
2014-Apr-11 18:31N 36°08' W 005°26'0 0.0
2014-Apr-11 17:33N 36°08' W 005°26'0 0.0
2014-Apr-11 16:33N 36°08' W 005°26'2 2.2
2014-Apr-11 15:33N 36°09' W 005°24'2 2.0
2014-Apr-11 14:33N 36°07' W 005°25'1 1.3
2014-Apr-11 13:29N 36°06' W 005°25'2 2.2
2014-Apr-11 12:31N 36°08' W 005°25'1 0.5
2014-Apr-11 11:06N 36°08' W 005°26'0 0.0
2014-Apr-11 09:32N 36°08' W 005°26'0 0.0
2014-Apr-11 08:32N 36°08' W 005°26'24472427.7
2014-Apr-11 07:31N 36°08' W 055°55'24472429.0
2014-Apr-11 06:31N 36°08' W 005°26'0 0.0
2014-Apr-11 05:31N 36°08' W 005°26'0 0.0
2014-Apr-11 04:33N 36°08' W 005°26'0 0.0
2014-Apr-11 03:33N 36°08' W 005°26'0 0.0
2014-Apr-11 02:29N 36°08' W 005°26'0 0.0
2014-Apr-11 01:23N 36°08' W 005°26'0 0.0
2014-Apr-10 22:15N 36°08' W 005°26'0 0.0
2014-Apr-10 21:21N 36°08' W 005°26'  

Dump ship's entire track history

sailing weather and tide predictions

Luz De Mar — ECIJ — position and weather